Location: Bogis-Bossey
(46.3500°N, 6.1667°E)
Time: 16:59:39
(UTC+00:00)

Atlas Centaur 2 - Pass Details

Date: 17 August 2022
Orbit: 459 x 1302 km, 30.4° (Epoch: 01 October)

Event Time Altitude Azimuth Distance (km) Brightness Sun altitude
Rises 21:23:29 0° 241° (WSW) 4,261 5.9 -23.1°
Reaches altitude 10° 21:27:13 10° 228° (SW) 3,238 5.1 -23.5°
Enters shadow 21:31:11 21° 202° (SSW) 2,428 4.2 -23.9°
